Date,TemperatureHighF,TemperatureAvgF,TemperatureLowF,DewpointHighF,DewpointAvgF,DewpointLowF,HumidityHigh,HumidityAvg,HumidityLow,PressureMaxIn,PressureMinIn,WindSpeedMaxMPH,WindSpeedAvgMPH,GustSpeedMaxMPH,PrecipitationSumIn
2013-1-1,21.6,18.8,2.5,20.0,17.0,1.0,96,92,89,30.73,30.57,4,1,8,0.00
2013-1-2,24.7,19.5,6.9,20.0,17.1,5.0,97,90,79,30.69,30.56,6,1,8,0.00
2013-1-3,23.8,15.0,0.0,19.0,12.8,-3.0,97,90,81,30.56,30.44,9,2,10,0.00
2013-1-4,27.8,24.2,16.4,26.0,21.4,14.0,95,89,82,30.56,30.46,10,4,10,0.00
2013-1-5,31.5,26.1,22.3,26.0,22.8,19.0,96,87,75,30.47,30.28,9,2,10,0.00
2013-1-6,30.0,27.4,25.8,27.0,25.5,23.0,96,92,87,30.29,30.19,6,1,7,0.00
2013-1-7,34.4,30.0,26.1,32.0,28.0,23.0,97,92,85,30.19,30.01,8,2,11,0.00
2013-1-8,38.1,33.8,26.3,34.0,31.3,25.0,97,90,83,30.23,30.05,12,3,17,0.24
2013-1-9,41.0,36.0,29.3,36.0,33.1,29.0,97,89,80,30.06,29.73,12,4,19,0.41
2013-1-10,29.2,25.0,19.7,29.0,23.6,18.0,97,94,90,29.95,29.81,15,8,20,0.00
2013-1-11,19.4,16.3,6.4,18.0,14.8,4.0,96,94,90,30.38,29.95,11,4,14,0.00
2013-1-12,22.0,14.8,0.2,20.0,13.2,-3.0,96,93,87,30.46,30.37,2,0,3,0.00
2013-1-13,23.1,10.8,-11.7,21.0,8.8,-15.0,94,91,83,30.59,30.44,3,0,4,0.00
2013-1-14,19.9,16.5,8.2,19.0,15.0,6.0,95,94,92,30.63,30.51,6,2,8,0.00
2013-1-15,26.7,22.3,19.6,25.0,20.9,18.0,97,94,90,30.73,30.62,7,3,8,0.00
2013-1-16,27.9,23.0,18.6,27.0,21.6,17.0,96,94,88,30.72,30.66,8,3,10,0.01
2013-1-17,29.7,23.7,19.0,24.0,20.5,17.0,94,87,78,30.68,30.50,10,4,13,0.00
2013-1-18,32.5,25.7,22.2,25.0,21.2,19.0,89,83,73,30.50,30.38,10,4,12,0.00
2013-1-19,32.9,24.6,14.3,24.0,20.4,12.0,96,84,69,30.56,30.46,10,3,11,0.01
2013-1-20,34.2,25.4,19.2,27.0,21.4,17.0,93,85,70,30.62,30.49,9,4,12,0.00
2013-1-21,33.4,21.9,7.2,25.0,18.3,4.0,97,86,67,30.49,30.37,8,2,10,0.00
2013-1-22,33.2,22.9,17.1,25.0,19.8,15.0,95,88,72,30.42,30.26,7,3,10,0.01
2013-1-23,37.4,31.0,24.0,32.0,26.0,21.0,92,82,62,30.26,30.05,11,4,18,0.08
2013-1-24,38.5,33.2,25.5,33.0,30.5,24.0,97,89,77,30.30,30.13,7,3,13,0.00
2013-1-25,37.7,35.3,33.4,36.0,34.3,32.0,98,96,90,30.24,29.99,7,2,10,0.37
2013-1-26,35.1,32.3,28.6,35.0,31.8,28.0,99,97,93,30.02,29.93,10,1,12,0.13
2013-1-27,34.1,28.8,21.2,31.0,27.7,20.0,99,95,85,30.07,30.01,4,1,6,0.03
2013-1-28,30.8,27.2,21.4,28.0,26.3,21.0,98,96,90,30.03,29.93,16,3,19,0.00
2013-1-29,32.2,30.0,28.7,30.0,29.0,28.0,98,96,89,30.28,29.94,14,5,19,0.00
2013-1-30,40.4,35.0,29.4,36.0,33.1,29.0,99,93,83,30.32,30.22,9,2,14,0.70
2013-1-31,38.7,34.3,32.1,36.0,33.3,31.0,98,96,91,30.35,30.27,3,0,4,0.06
2013-2-1,41.2,33.8,26.0,35.0,31.9,25.0,99,92,78,30.52,30.27,8,2,12,0.00
2013-2-2,40.0,32.2,27.1,35.0,30.3,26.0,98,93,81,30.57,30.35,12,4,12,0.01
2013-2-3,41.9,30.1,24.9,33.0,27.6,24.0,97,90,68,30.34,30.21,6,2,8,0.00
2013-2-4,41.6,33.2,27.1,34.0,30.3,26.0,97,89,73,30.22,30.07,5,1,8,0.00
2013-2-5,43.5,35.2,31.0,35.0,32.7,30.0,98,91,71,30.07,29.90,13,3,17,0.05
2013-2-6,41.5,34.2,28.8,33.0,30.8,28.0,98,88,68,30.15,30.02,7,1,12,0.01
2013-2-7,39.8,32.0,28.4,32.0,28.8,26.0,98,88,73,30.08,29.97,8,4,11,0.00
2013-2-8,30.3,28.8,26.2,30.0,28.2,25.0,98,97,93,30.19,30.08,10,5,12,0.00
2013-2-9,29.8,27.4,19.3,28.0,25.7,18.0,97,93,88,30.27,30.13,8,4,13,0.00
2013-2-10,34.2,27.4,17.9,30.0,25.0,17.0,98,90,79,30.37,30.27,4,1,6,0.01
2013-2-11,39.1,28.3,19.9,30.0,24.9,19.0,96,87,66,30.32,30.25,4,1,6,0.00
2013-2-12,41.8,34.1,28.7,34.0,30.1,26.0,94,85,72,30.40,30.27,8,1,11,0.00
2013-2-13,40.2,37.0,28.2,34.0,32.9,27.0,96,85,75,30.39,30.24,18,7,26,0.00
2013-2-14,40.8,31.2,21.0,33.0,28.0,20.0,97,88,69,30.60,30.40,3,0,6,0.00
2013-2-15,46.4,36.9,30.8,36.0,31.6,29.0,94,82,63,30.60,30.32,5,2,7,0.00
2013-2-16,45.7,36.2,29.2,37.0,31.7,27.0,92,84,68,30.32,30.00,16,5,25,0.05
2013-2-17,36.6,32.4,29.0,30.0,27.8,26.0,94,83,72,30.18,30.04,17,6,23,0.00
2013-2-18,37.7,30.6,25.2,28.0,26.7,25.0,97,86,65,30.18,29.84,7,2,9,0.00
2013-2-19,34.7,30.9,28.8,32.0,28.8,26.0,96,92,81,29.94,29.75,8,3,10,0.04
2013-2-20,35.8,28.6,17.4,29.0,25.0,17.0,98,87,59,30.08,29.95,10,3,14,0.00
2013-2-21,31.3,27.5,23.1,29.0,25.6,21.0,98,92,81,30.14,30.08,8,2,13,0.00
2013-2-22,34.1,30.7,24.3,33.0,29.8,24.0,98,96,84,30.13,29.80,20,2,30,0.17
2013-2-23,34.0,28.1,12.8,29.0,23.8,11.0,96,84,74,30.33,29.84,19,6,28,0.01
2013-2-24,35.1,23.6,8.1,31.0,20.4,6.0,97,88,69,30.49,30.24,6,1,9,0.08
2013-2-25,38.4,31.6,25.5,32.0,27.0,23.0,96,83,69,30.23,30.05,20,6,23,0.14
2013-2-26,41.0,29.5,19.1,26.0,23.2,16.0,92,78,56,30.40,30.23,8,2,13,0.02
2013-2-27,42.4,32.7,26.7,29.0,25.6,22.0,89,76,53,30.39,30.33,10,3,14,0.00
2013-2-28,35.2,32.9,31.0,34.0,31.7,28.0,98,95,76,30.48,30.35,9,2,11,0.60
2013-3-1,44.2,37.9,33.9,41.0,36.6,33.0,98,95,84,30.52,30.41,7,3,10,0.04
2013-3-2,45.3,38.4,33.5,40.0,36.4,33.0,98,92,80,30.41,30.02,9,3,14,0.23
2013-3-3,40.4,31.5,19.0,39.0,25.4,18.0,98,79,62,30.24,29.98,19,8,35,0.06
2013-3-4,40.8,29.3,18.6,26.0,21.6,17.0,96,75,45,30.38,30.18,6,2,9,0.00
2013-3-5,41.6,33.8,25.7,29.0,24.0,20.0,81,68,55,30.18,29.83,15,5,15,0.00
2013-3-6,47.7,35.9,31.3,41.0,32.6,28.0,98,88,73,29.96,29.62,16,3,22,0.41
2013-3-7,45.1,35.9,29.5,32.0,29.3,27.0,97,78,50,30.12,29.96,5,1,6,0.21
2013-3-8,44.7,34.5,26.3,34.0,28.2,24.0,93,79,57,30.18,30.03,13,4,13,0.00
2013-3-9,45.5,33.7,24.8,34.0,28.7,24.0,97,83,61,30.49,30.18,6,1,11,0.00
2013-3-10,44.1,34.8,27.8,34.0,29.7,26.0,98,83,51,30.50,30.36,7,2,14,0.12
2013-3-11,44.8,37.1,30.8,37.0,32.6,29.0,99,85,62,30.36,30.29,12,4,14,0.00
2013-3-12,48.5,39.3,32.4,44.0,36.8,30.0,97,91,80,30.29,30.16,8,3,10,0.10
2013-3-13,53.8,44.5,37.7,45.0,40.6,37.0,97,87,68,30.26,30.17,8,3,10,0.00
2013-3-14,55.0,46.6,38.7,44.0,39.0,36.0,92,76,52,30.20,30.03,12,3,14,0.00
2013-3-15,53.5,46.5,34.5,42.0,38.3,33.0,92,74,58,30.17,30.08,13,5,19,0.00
2013-3-16,45.5,39.3,31.1,39.0,35.4,30.0,96,86,69,30.09,29.77,23,4,31,0.11
2013-3-17,36.8,30.4,26.5,30.0,26.4,24.0,97,86,61,30.14,29.81,20,10,32,0.00
2013-3-18,40.1,32.5,25.2,33.0,26.1,19.0,97,79,51,30.25,30.07,23,6,30,0.08
2013-3-19,46.3,34.6,21.7,34.0,26.6,18.0,93,73,52,30.33,29.91,16,5,16,0.00
2013-3-20,50.8,40.9,33.3,44.0,34.1,28.0,94,78,53,29.91,29.53,18,6,27,0.30
2013-3-21,33.7,30.2,26.5,29.0,25.1,21.0,96,81,64,30.11,29.86,19,8,26,0.00
2013-3-22,33.7,27.3,20.8,27.0,23.9,20.0,96,87,71,30.35,30.10,22,5,23,0.01
2013-3-23,36.9,27.5,19.3,27.0,23.8,18.0,97,86,57,30.43,30.35,11,2,16,0.03
2013-3-24,41.7,31.0,21.9,26.0,21.0,14.0,93,70,34,30.41,30.24,9,4,18,0.00
2013-3-25,47.7,35.1,25.3,30.0,25.0,21.0,86,68,41,30.24,30.03,10,4,14,0.00
2013-3-26,53.1,41.6,30.5,37.0,31.7,27.0,92,70,43,30.03,29.97,8,3,11,0.00
2013-3-27,55.2,45.3,35.5,41.0,36.3,32.0,92,72,51,30.02,29.96,10,2,16,0.00
2013-3-28,55.8,45.6,38.1,45.0,40.0,35.0,96,82,60,30.10,30.01,9,2,10,0.02
2013-3-29,54.5,46.4,39.8,46.0,42.5,39.0,96,87,68,30.25,30.11,6,2,9,0.03
2013-3-30,59.7,43.7,35.9,45.0,37.2,30.0,99,83,34,30.32,30.20,8,4,10,0.00
2013-3-31,67.8,54.5,34.7,41.0,33.4,25.0,94,51,23,30.09,29.92,5,1,8,0.00
2013-4-1,62.3,49.5,33.8,45.0,38.6,33.0,95,68,46,30.01,29.93,12,4,14,0.00
2013-4-2,59.4,46.1,31.9,46.0,39.5,31.0,99,80,57,30.12,30.01,10,2,25,0.00
2013-4-3,59.9,47.3,36.1,44.0,39.0,35.0,98,76,44,30.14,30.04,11,2,22,0.00
2013-4-4,55.1,47.4,37.0,48.0,41.8,36.0,96,81,66,30.04,29.76,18,4,30,0.20
2013-4-5,53.6,45.9,40.9,45.0,42.1,40.0,98,87,65,29.94,29.86,17,4,19,0.14
2013-4-6,49.3,44.0,40.6,42.0,39.1,35.0,97,84,59,29.94,29.87,17,4,22,0.38
2013-4-7,49.4,41.2,34.3,42.0,35.0,30.0,97,80,50,29.85,29.64,24,6,31,0.38
2013-4-8,42.7,36.1,30.7,37.0,32.2,26.0,96,86,73,30.24,29.80,15,4,19,0.09
2013-4-9,49.1,37.4,26.2,35.0,28.7,24.0,92,72,52,30.38,30.26,9,2,12,0.00
2013-4-10,51.0,43.5,37.9,47.0,37.2,33.0,92,78,64,30.29,29.92,24,6,28,0.13
2013-4-11,44.7,38.1,28.5,35.0,31.5,27.0,94,78,60,30.16,30.10,13,5,16,0.00
2013-4-12,53.1,40.1,26.6,38.0,31.7,25.0,97,75,42,30.15,29.68,10,2,13,0.46
2013-4-13,38.8,35.5,31.9,37.0,29.6,24.0,96,79,58,29.92,29.64,28,12,35,0.08
2013-4-14,41.9,32.9,26.0,32.0,28.8,25.0,96,85,61,29.99,29.90,9,3,13,0.04
2013-4-15,42.7,35.0,25.5,28.0,23.5,18.0,97,66,44,30.08,29.90,13,5,19,0.01
2013-4-16,41.6,34.3,27.3,19.0,15.7,13.0,59,47,34,30.35,30.09,15,6,18,0.00
2013-4-17,46.0,34.8,25.0,23.0,17.9,12.0,71,52,31,30.45,30.35,13,4,21,0.00
2013-4-18,47.5,36.8,20.6,33.0,26.4,18.0,93,67,48,30.43,30.29,7,2,12,0.00
2013-4-19,45.4,41.2,36.1,43.0,39.1,33.0,97,92,76,30.28,30.02,12,4,16,0.60
2013-4-20,49.6,44.6,40.5,41.0,37.5,35.0,91,77,59,30.16,30.05,13,6,19,0.04
2013-4-21,49.3,41.5,32.9,38.0,35.0,30.0,94,78,60,30.21,30.04,21,6,26,0.06
2013-4-22,46.3,36.3,24.6,29.0,24.7,20.0,90,65,38,30.46,30.22,12,4,15,0.00
2013-4-23,50.4,36.2,21.4,30.0,24.7,20.0,94,68,34,30.43,30.28,9,2,15,0.00
2013-4-24,56.0,41.1,25.0,35.0,29.7,24.0,96,68,39,30.38,30.05,9,3,16,0.00
2013-4-25,45.2,34.7,30.4,36.0,31.1,29.0,96,87,70,30.07,29.99,6,1,7,0.00
2013-4-26,67.0,57.0,37.0,45.0,40.9,36.0,96,58,39,30.22,30.14,9,3,19,0.00
2013-4-27,62.8,50.6,33.5,44.0,37.1,32.0,97,64,36,30.17,30.06,19,6,38,0.00
2013-4-28,55.8,49.0,43.3,43.0,38.1,30.0,90,68,48,30.09,29.91,14,6,19,0.09
2013-4-29,47.4,42.8,32.2,41.0,30.7,17.0,94,65,35,29.98,29.77,29,11,38,0.38
2013-4-30,40.9,33.0,26.3,31.0,25.4,18.0,97,75,53,30.44,29.98,20,5,24,0.00
2013-5-1,54.2,37.8,25.9,35.0,28.2,24.0,97,73,35,30.68,30.44,7,2,11,0.03
2013-5-2,64.7,46.3,31.3,40.0,30.8,22.0,95,60,20,30.68,30.29,10,2,11,0.00
2013-5-3,61.0,52.1,41.8,41.0,37.3,31.0,89,59,42,30.28,30.17,8,2,14,0.00
2013-5-4,64.7,54.8,41.8,39.0,35.1,32.0,81,50,30,30.21,30.03,16,6,21,0.00
2013-5-5,73.1,58.5,44.3,43.0,37.1,33.0,68,47,26,30.03,29.80,14,4,22,0.00
2013-5-6,76.5,61.5,45.7,45.0,39.5,34.0,72,47,22,29.84,29.69,8,3,11,0.00
2013-5-7,76.4,60.6,39.0,51.0,43.3,37.0,93,56,34,29.87,29.74,11,3,12,0.00
2013-5-8,76.6,64.6,52.4,53.0,45.7,39.0,71,52,36,29.94,29.86,9,3,15,0.00
2013-5-9,77.0,61.4,43.3,55.0,48.0,42.0,96,65,34,30.05,29.95,10,3,17,0.00
2013-5-10,81.3,61.5,40.5,54.0,45.4,39.0,96,62,24,30.15,30.06,11,2,11,0.00
2013-5-11,80.5,64.3,47.1,53.0,48.4,44.0,91,59,32,30.12,30.00,8,3,13,0.00
2013-5-12,75.9,64.7,49.9,54.0,50.6,46.0,93,62,41,30.02,29.91,15,4,20,0.00
2013-5-13,69.0,57.2,44.0,56.0,48.0,40.0,96,73,51,30.09,29.79,24,5,35,0.10
2013-5-14,57.7,48.2,34.2,42.0,38.6,33.0,95,71,46,30.12,30.05,11,3,13,0.00
2013-5-15,62.0,48.4,30.1,42.0,36.0,29.0,98,66,30,30.09,29.93,7,2,9,0.00
2013-5-16,59.7,51.2,39.1,46.0,42.4,38.0,96,73,51,29.95,29.83,7,2,11,0.00
2013-5-17,62.8,50.6,36.5,48.0,42.3,36.0,99,76,49,29.97,29.85,14,5,20,0.00
2013-5-18,53.8,48.0,37.9,44.0,42.0,36.0,94,80,63,30.15,29.97,7,2,10,0.00
2013-5-19,57.8,49.4,37.7,46.0,42.8,36.0,97,79,58,30.26,30.15,15,3,15,0.00
2013-5-20,70.7,53.5,35.7,49.0,43.6,34.0,99,74,39,30.28,29.89,6,1,15,0.00
2013-5-21,70.8,52.0,41.2,49.0,43.3,39.0,95,75,42,29.89,29.55,21,6,32,0.08
2013-5-22,48.6,38.7,33.3,40.0,35.1,32.0,97,87,63,30.02,29.73,17,6,22,0.07
2013-5-23,57.2,44.2,30.9,40.0,33.6,25.0,98,71,29,30.05,29.95,13,3,15,0.00
2013-5-24,49.6,40.0,27.6,42.0,36.4,26.0,98,87,74,30.10,29.95,9,2,14,0.08
2013-5-25,60.0,46.4,34.7,45.0,38.2,34.0,98,77,45,30.07,29.98,6,2,10,0.00
2013-5-26,61.5,50.6,33.7,47.0,41.7,33.0,98,73,46,29.98,29.89,15,4,17,0.00
2013-5-27,64.7,53.2,46.7,49.0,46.1,44.0,95,79,49,29.96,29.75,11,2,18,0.10
2013-5-28,58.1,50.5,45.4,49.0,45.9,42.0,98,85,59,29.84,29.75,11,3,17,0.07
2013-5-29,56.2,47.7,42.2,49.0,44.8,41.0,97,90,69,29.91,29.67,14,4,17,0.17
2013-5-30,54.7,46.7,34.4,44.0,40.6,33.0,97,81,55,30.16,29.91,11,4,15,0.07
2013-5-31,62.4,48.4,35.0,44.0,39.0,34.0,98,73,38,30.30,30.16,11,2,13,0.00
2013-6-1,65.5,52.4,34.3,48.0,41.5,33.0,97,69,39,30.26,29.98,7,2,9,0.00
2013-6-2,59.3,49.9,35.7,47.0,42.9,34.0,98,78,54,29.97,29.85,17,4,25,0.04
2013-6-3,65.7,53.2,38.2,49.0,43.6,37.0,98,73,37,30.02,29.95,10,3,16,0.00
2013-6-4,71.4,57.7,39.1,50.0,44.5,38.0,97,65,37,30.10,30.02,7,2,11,0.00
2013-6-5,74.9,61.0,40.0,51.0,46.4,39.0,98,63,33,30.04,29.94,9,2,14,0.00
2013-6-6,80.3,63.9,44.5,56.0,49.6,43.0,96,64,34,29.97,29.87,7,2,10,0.00
2013-6-7,74.6,62.2,44.0,55.0,47.0,30.0,98,63,29,29.93,29.82,16,5,27,0.00
2013-6-8,72.1,57.9,37.0,48.0,42.7,34.0,96,60,31,30.00,29.92,10,2,14,0.00
2013-6-9,69.6,56.0,38.2,50.0,42.5,36.0,95,65,32,29.93,29.84,15,4,19,0.00
2013-6-10,69.9,50.5,32.4,45.0,39.0,31.0,97,69,37,29.87,29.72,7,2,11,0.00
2013-6-11,62.9,53.8,38.2,44.0,39.9,34.0,94,61,41,30.01,29.76,15,5,20,0.00
2013-6-12,61.3,53.8,45.2,44.0,40.7,34.0,83,62,48,30.03,29.97,11,4,14,0.00
2013-6-13,61.7,52.1,41.8,44.0,40.6,38.0,91,66,45,30.07,30.00,13,4,15,0.00
2013-6-14,65.0,52.3,37.8,43.0,40.2,36.0,94,66,38,30.16,30.07,7,2,24,0.00
2013-6-15,74.6,58.4,41.2,44.0,40.0,34.0,90,56,23,30.06,29.93,6,3,12,0.00
2013-6-16,86.1,65.4,39.8,53.0,42.6,36.0,93,49,19,29.99,29.86,7,2,10,0.00
2013-6-17,77.8,66.4,55.9,53.0,49.2,44.0,77,55,37,29.94,29.73,9,4,14,0.00
2013-6-18,66.5,58.4,48.7,55.0,50.1,46.0,92,74,62,29.82,29.73,18,6,22,0.00
2013-6-19,50.7,47.5,43.8,49.0,46.4,43.0,97,96,91,29.92,29.71,13,4,16,1.14
2013-6-20,53.4,47.4,42.8,46.0,43.6,42.0,97,87,70,30.08,29.89,17,4,21,0.54
2013-6-21,59.4,49.9,42.6,49.0,45.0,41.0,97,84,60,30.11,30.06,9,2,11,0.11
2013-6-22,69.3,54.4,41.5,51.0,45.3,39.0,98,75,39,30.10,29.93,10,2,13,0.00
2013-6-23,70.8,59.9,46.0,53.0,47.8,44.0,93,67,44,29.93,29.57,6,2,10,0.00
2013-6-24,64.3,56.4,52.0,57.0,53.2,47.0,98,89,62,29.73,29.55,9,3,12,0.44
2013-6-25,65.6,56.2,50.7,58.0,53.4,50.0,98,90,72,29.89,29.73,11,2,18,0.37
2013-6-26,66.5,57.5,52.6,59.0,55.1,52.0,97,92,74,30.11,29.88,11,3,14,0.19
2013-6-27,79.8,65.5,53.2,64.0,57.7,53.0,99,78,47,30.15,30.10,7,3,10,0.00
2013-6-28,86.7,70.1,50.3,68.0,59.3,50.0,98,72,42,30.17,29.98,5,1,7,0.00
2013-6-29,82.9,70.6,55.5,68.0,61.4,54.0,97,74,48,30.00,29.84,10,4,13,0.00
2013-6-30,87.4,70.9,51.0,66.0,60.0,50.0,98,72,38,30.00,29.88,6,1,6,0.00
2013-7-1,97.8,76.3,54.8,74.0,61.7,53.0,98,65,26,29.93,29.79,7,2,11,0.00
2013-7-2,89.1,74.5,58.3,71.0,63.8,57.0,96,72,48,29.94,29.82,6,2,9,0.00
2013-7-3,81.6,70.0,53.5,62.0,57.1,51.0,96,67,40,29.94,29.83,10,3,14,0.00
2013-7-4,76.8,63.8,47.8,52.0,48.8,46.0,98,63,34,29.88,29.78,10,3,13,0.00
2013-7-5,72.9,60.9,44.3,53.0,48.2,43.0,97,66,41,29.85,29.77,12,4,16,0.00
2013-7-6,78.5,58.5,38.7,55.0,47.8,38.0,99,72,38,29.89,29.76,7,2,12,0.00
2013-7-7,81.4,64.7,40.9,60.0,49.4,40.0,99,63,25,29.83,29.74,7,2,11,0.00
2013-7-8,77.0,61.3,47.4,56.0,50.8,46.0,94,71,37,30.03,29.77,13,4,18,0.00
2013-7-9,84.9,66.8,45.5,57.0,48.9,41.0,97,60,22,30.08,29.95,7,2,9,0.00
2013-7-10,85.2,69.8,50.1,55.0,49.6,46.0,91,52,28,29.95,29.73,10,3,13,0.00
2013-7-11,75.7,63.0,43.1,50.0,44.7,41.0,94,56,30,29.83,29.75,16,3,16,0.00
2013-7-12,73.3,56.9,40.0,46.0,40.2,35.0,95,60,26,29.93,29.82,9,3,18,0.00
2013-7-13,73.0,58.3,39.2,46.0,39.7,34.0,92,54,24,30.09,29.94,10,3,13,0.00
2013-7-14,81.7,61.6,36.4,49.0,42.7,35.0,96,58,20,30.10,29.91,6,2,13,0.00
2013-7-15,80.0,62.1,40.6,51.0,43.4,35.0,95,58,20,29.93,29.85,10,3,14,0.00
2013-7-16,89.1,69.8,43.7,61.0,50.5,41.0,95,55,28,29.90,29.74,9,3,13,0.00
2013-7-17,84.4,72.7,50.6,62.0,54.2,48.0,89,56,28,30.00,29.77,15,4,20,0.00
2013-7-18,87.2,66.9,44.2,55.0,46.9,38.0,98,58,18,30.08,29.98,9,2,14,0.00
2013-7-19,88.1,69.1,44.3,52.0,44.7,36.0,92,49,16,30.01,29.88,11,2,12,0.00
2013-7-20,88.0,67.1,46.6,51.0,44.6,33.0,89,52,14,29.90,29.76,9,2,23,0.00
2013-7-21,88.6,66.3,39.6,50.0,41.9,27.0,94,51,11,29.82,29.74,7,2,15,0.00
2013-7-22,86.5,65.6,40.8,50.0,43.3,38.0,90,53,18,29.91,29.78,9,2,17,0.00
2013-7-23,91.7,67.4,43.6,50.0,44.0,35.0,90,51,14,29.98,29.86,11,2,11,0.00
2013-7-24,90.7,69.1,45.1,52.0,43.1,29.0,91,49,11,29.94,29.86,11,2,17,0.00
2013-7-25,90.8,69.7,45.0,51.0,42.9,31.0,89,47,12,29.96,29.91,9,2,15,0.00
2013-7-26,91.6,68.3,37.8,50.0,38.9,29.0,92,45,11,30.04,29.91,11,2,12,0.00
2013-7-27,81.2,65.4,44.8,48.0,40.0,33.0,82,45,18,29.94,29.81,12,4,20,0.00
2013-7-28,80.4,61.5,37.7,45.0,39.1,34.0,91,51,19,29.85,29.78,14,3,19,0.00
2013-7-29,81.6,62.9,37.0,48.0,38.7,33.0,90,48,18,29.90,29.83,10,2,13,0.00
2013-7-30,83.2,65.3,46.7,48.0,41.6,33.0,82,49,17,30.05,29.90,10,2,15,0.00
2013-7-31,89.9,71.7,44.4,48.0,43.5,29.0,83,41,11,30.05,29.84,14,4,17,0.00
2013-8-1,75.4,60.7,47.9,53.0,48.6,42.0,96,68,38,29.91,29.80,15,3,24,0.36
2013-8-2,64.8,57.0,46.3,56.0,52.6,45.0,98,86,64,30.05,29.89,9,2,13,0.10
2013-8-3,72.1,59.2,48.6,56.0,52.7,47.0,98,81,51,30.09,30.02,9,2,13,0.00
2013-8-4,82.2,64.5,48.3,57.0,50.8,46.0,98,67,29,30.04,29.91,9,2,13,0.00
2013-8-5,83.5,64.6,45.4,55.0,49.7,43.0,96,64,27,29.94,29.84,10,2,15,0.00
2013-8-6,87.4,67.3,45.2,55.0,48.7,40.0,98,59,19,29.94,29.84,12,2,13,0.00
2013-8-7,87.5,69.4,49.8,53.0,46.7,34.0,95,52,15,29.89,29.80,10,2,13,0.00
2013-8-8,87.7,65.6,42.4,54.0,46.0,40.0,92,56,20,29.91,29.79,7,1,12,0.00
2013-8-9,88.8,70.7,49.3,58.0,49.0,45.0,91,52,25,29.84,29.73,7,2,12,0.00
2013-8-10,88.4,71.1,45.3,54.0,49.4,42.0,91,51,26,29.86,29.75,8,2,14,0.00
2013-8-11,84.8,73.0,60.1,57.0,50.3,39.0,71,47,26,29.90,29.81,12,4,22,0.00
2013-8-12,86.0,69.9,48.5,56.0,50.4,44.0,86,53,29,29.94,29.84,11,2,15,0.01
2013-8-13,87.0,70.5,49.0,54.0,49.1,44.0,87,51,23,29.99,29.88,7,1,10,0.00
2013-8-14,91.8,74.9,57.2,53.0,48.6,38.0,81,45,17,29.91,29.75,10,4,15,0.00
2013-8-15,91.1,76.4,59.7,52.0,46.4,42.0,65,37,19,29.87,29.73,7,3,11,0.00
2013-8-16,85.4,72.4,51.0,54.0,50.0,44.0,81,47,29,29.91,29.81,9,3,15,0.00
2013-8-17,83.9,71.6,56.1,58.0,54.0,49.0,93,56,35,29.95,29.83,8,2,15,0.01
2013-8-18,82.0,67.2,44.5,54.0,47.7,42.0,93,53,30,30.01,29.92,12,3,15,0.00
2013-8-19,81.7,65.1,44.3,52.0,45.5,41.0,93,55,27,30.00,29.90,12,3,21,0.00
2013-8-20,79.0,62.1,42.7,47.0,41.1,32.0,92,52,18,30.01,29.93,12,3,16,0.00
2013-8-21,85.0,62.4,37.4,44.0,37.9,32.0,88,47,15,30.03,29.91,8,2,14,0.00
2013-8-22,83.7,69.0,44.9,55.0,45.4,36.0,82,45,27,29.95,29.75,13,4,25,0.02
2013-8-23,78.4,65.9,49.2,58.0,52.7,44.0,94,65,42,29.89,29.74,10,3,17,0.01
2013-8-24,83.9,66.4,42.3,53.0,48.5,41.0,97,57,30,29.81,29.67,12,4,19,0.00
2013-8-25,82.9,66.7,52.4,56.0,48.7,43.0,84,56,30,29.91,29.70,13,2,23,0.14
2013-8-26,79.5,64.8,51.1,58.0,50.7,46.0,96,65,32,29.93,29.77,11,3,22,0.04
2013-8-27,83.3,64.6,44.1,54.0,49.0,42.0,94,61,30,29.92,29.74,6,1,11,0.00
2013-8-28,85.4,71.5,54.6,57.0,50.7,45.0,77,50,26,29.82,29.71,9,3,14,0.00
2013-8-29,82.0,68.5,51.4,61.0,51.3,46.0,84,58,30,29.97,29.78,11,4,17,0.06
2013-8-30,76.7,65.4,46.9,53.0,50.4,44.0,90,60,42,30.07,29.97,10,4,16,0.00
2013-8-31,87.1,65.4,43.5,53.0,47.5,41.0,97,59,24,30.04,29.85,8,2,11,0.00
2013-9-1,89.0,73.2,56.5,50.0,46.1,39.0,65,40,24,29.85,29.71,8,3,12,0.00
2013-9-2,83.1,71.4,62.2,55.0,51.2,39.0,67,50,31,29.82,29.71,9,2,12,0.00
2013-9-3,75.9,68.9,63.9,64.0,57.9,55.0,85,69,56,29.96,29.83,11,3,12,0.06
2013-9-4,85.2,72.7,60.9,60.0,56.8,53.0,84,60,34,29.95,29.82,10,3,26,0.14
2013-9-5,75.4,64.5,57.8,66.0,59.4,55.0,95,84,68,29.98,29.78,16,4,27,0.37
2013-9-6,68.0,59.5,52.9,56.0,51.9,49.0,96,77,55,30.09,29.88,14,4,20,0.00
2013-9-7,72.5,60.5,45.0,54.0,50.1,44.0,97,71,39,30.09,29.95,10,2,13,0.00
2013-9-8,69.1,58.8,47.7,52.0,49.6,46.0,94,73,48,30.02,29.96,11,2,21,0.01
2013-9-9,80.3,61.0,46.2,53.0,49.4,45.0,96,70,36,30.02,29.92,7,1,9,0.00
2013-9-10,84.9,65.2,48.6,55.0,49.2,40.0,96,63,20,29.99,29.90,9,2,14,0.00
2013-9-11,90.6,72.5,49.2,52.0,47.6,43.0,90,47,19,30.00,29.90,12,3,14,0.00
2013-9-12,88.6,76.0,65.4,49.0,46.4,43.0,50,36,21,29.91,29.75,8,4,14,0.00
2013-9-13,85.6,70.9,50.1,54.0,50.1,47.0,90,51,28,29.79,29.67,14,3,19,0.00
2013-9-14,87.7,72.4,51.3,55.0,49.5,43.0,84,48,26,29.82,29.72,8,3,14,0.00
2013-9-15,88.5,74.1,60.0,55.0,48.5,43.0,69,42,27,29.77,29.55,11,4,24,0.00
2013-9-16,71.2,61.7,52.7,56.0,50.4,44.0,96,69,43,29.82,29.63,12,4,19,0.00
2013-9-17,63.6,51.1,39.2,50.0,46.5,38.0,97,86,60,29.80,29.61,21,4,33,0.43
2013-9-18,58.4,49.1,37.9,48.0,43.7,37.0,98,83,53,30.12,29.79,11,4,19,0.28
2013-9-19,68.1,52.5,42.4,46.0,41.6,31.0,97,71,26,30.17,29.93,9,3,12,0.01
2013-9-20,79.6,59.2,43.0,44.0,39.9,35.0,87,55,20,29.93,29.51,9,3,11,0.00
2013-9-21,64.1,56.4,48.7,47.0,43.2,39.0,89,63,44,29.68,29.55,7,2,12,0.00
2013-9-22,58.2,51.5,47.5,47.0,45.1,42.0,95,80,55,29.77,29.63,9,2,13,0.22
2013-9-23,58.0,50.7,43.4,46.0,43.5,41.0,97,78,54,29.97,29.77,13,3,22,0.01
2013-9-24,52.3,47.4,43.1,47.0,44.9,42.0,97,91,72,29.93,29.77,9,2,15,0.64
2013-9-25,47.5,43.9,41.5,44.0,42.2,41.0,97,93,84,29.85,29.77,9,3,12,0.30
2013-9-26,56.9,44.4,32.0,46.0,40.5,31.0,98,87,45,30.05,29.85,8,2,13,0.01
2013-9-27,52.1,42.8,35.5,44.0,40.3,34.0,98,91,67,30.09,30.01,7,2,17,0.07
2013-9-28,57.1,49.4,43.3,49.0,45.6,42.0,96,87,67,30.01,29.55,10,2,17,0.18
2013-9-29,58.0,45.8,42.7,49.0,42.4,40.0,95,88,65,29.75,29.54,17,4,28,0.51
2013-9-30,52.9,46.2,36.9,44.0,38.5,34.0,95,75,55,29.97,29.52,18,6,33,0.19
2013-10-1,52.5,42.8,33.0,44.0,38.9,32.0,97,86,61,30.20,29.97,10,2,21,0.17
2013-10-2,50.6,40.9,33.0,39.0,36.0,32.0,98,84,55,30.21,30.00,8,2,11,0.00
2013-10-3,52.4,39.1,29.6,43.0,35.8,29.0,97,88,63,30.45,30.02,11,4,14,0.10
2013-10-4,55.3,36.4,25.5,40.0,30.6,25.0,98,83,42,30.59,30.45,5,1,7,0.01
2013-10-5,59.3,44.0,32.0,38.0,34.0,30.0,94,71,40,30.53,30.35,9,3,10,0.00
2013-10-6,67.0,47.9,34.5,41.0,35.5,32.0,93,66,34,30.34,29.99,10,3,12,0.00
2013-10-7,57.4,45.8,30.1,42.0,36.4,28.0,97,72,47,30.00,29.90,17,5,26,0.00
2013-10-8,44.1,40.9,36.6,40.0,37.4,34.0,96,87,70,30.01,29.92,5,1,8,0.05
2013-10-9,50.0,38.7,30.0,41.0,36.0,29.0,98,91,65,30.08,29.96,6,1,9,0.01
2013-10-10,49.5,41.7,32.3,42.0,37.8,31.0,97,86,62,30.03,29.92,4,1,8,0.00
2013-10-11,50.2,42.5,34.3,43.0,38.5,33.0,96,86,68,30.14,30.03,3,1,6,0.00
2013-10-12,52.6,42.8,37.3,41.0,38.2,36.0,96,84,61,30.13,30.03,6,2,10,0.00
2013-10-13,49.3,37.1,23.3,41.0,35.1,22.0,98,93,71,30.36,30.13,5,1,9,0.00
2013-10-14,52.2,33.7,20.2,40.0,29.6,19.0,99,86,54,30.50,30.36,5,1,8,0.01
2013-10-15,53.9,36.7,23.4,39.0,31.7,22.0,98,85,47,30.49,30.27,7,2,9,0.01
2013-10-16,53.2,40.2,26.9,38.0,33.2,26.0,97,78,48,30.26,30.17,8,2,14,0.00
2013-10-17,52.8,35.4,22.3,40.0,31.1,21.0,98,86,53,30.36,30.22,6,1,12,0.00
2013-10-18,55.2,37.6,23.6,41.0,33.8,22.0,98,88,55,30.38,30.27,7,2,12,0.01
2013-10-19,57.0,41.3,30.0,40.0,35.5,28.0,97,82,48,30.27,30.14,9,2,10,0.00
2013-10-20,56.9,38.1,23.1,42.0,33.2,22.0,98,85,52,30.26,30.18,7,1,10,0.01
2013-10-21,64.4,44.6,31.6,44.0,38.8,31.0,98,83,44,30.29,30.21,10,2,11,0.00
2013-10-22,62.7,46.3,34.4,46.0,40.9,33.0,98,83,50,30.25,30.14,8,3,12,0.01
2013-10-23,66.6,45.3,31.1,45.0,39.1,30.0,98,82,40,30.18,30.10,11,2,11,0.01
2013-10-24,64.7,46.0,28.4,44.0,38.5,27.0,98,78,42,30.17,30.09,8,2,11,0.00
2013-10-25,64.0,44.8,28.7,45.0,38.6,28.0,98,81,49,30.30,30.17,7,2,9,0.00
2013-10-26,61.6,43.1,27.5,44.0,37.4,27.0,98,83,48,30.33,30.12,8,2,11,0.01
2013-10-27,54.7,41.3,26.1,43.0,35.9,25.0,98,83,53,30.11,29.73,23,3,28,0.02
2013-10-28,44.6,39.6,33.1,29.0,21.7,18.0,60,49,41,29.89,29.78,24,11,32,0.00
2013-10-29,42.9,32.3,17.8,25.0,20.9,16.0,92,64,46,30.10,29.89,8,2,12,0.00
2013-10-30,45.8,30.3,15.2,30.0,23.2,13.0,97,77,47,30.21,30.10,8,1,9,0.00
2013-10-31,42.9,36.7,22.7,40.0,33.1,21.0,97,87,73,30.27,30.13,6,2,9,0.00
2013-11-1,52.8,38.5,24.1,44.0,33.8,23.0,99,85,54,30.37,30.08,6,1,8,0.01
2013-11-2,46.0,41.0,34.9,42.0,35.3,27.0,95,80,58,30.07,29.72,19,4,27,0.30
2013-11-3,35.3,32.2,29.0,33.0,29.0,27.0,96,88,73,30.08,29.88,7,2,11,0.09
2013-11-4,33.3,27.9,16.2,30.0,26.4,15.0,98,94,86,30.31,30.07,5,0,6,0.05
2013-11-5,31.7,27.8,20.9,31.0,26.6,20.0,97,95,91,30.32,30.25,10,2,10,0.00
2013-11-6,37.1,34.1,31.8,36.0,33.2,31.0,98,96,92,30.45,30.32,7,2,9,0.38
2013-11-7,42.7,38.3,34.6,42.0,37.1,34.0,97,95,88,30.32,29.85,21,4,22,0.66
2013-11-8,41.9,36.8,27.9,37.0,34.0,27.0,98,90,76,30.23,30.01,9,2,16,0.07
2013-11-9,40.8,36.4,32.2,37.0,34.5,32.0,98,93,85,30.27,30.18,7,4,11,0.01
2013-11-10,48.2,40.2,33.8,42.0,37.4,33.0,98,90,75,30.26,30.17,8,2,10,0.00
2013-11-11,53.8,42.9,37.5,46.0,40.5,37.0,99,91,73,30.37,30.27,9,4,11,0.01
2013-11-12,46.3,42.0,36.8,42.0,38.9,34.0,96,89,77,30.40,30.26,8,2,12,0.05
2013-11-13,47.1,38.6,29.9,42.0,36.7,29.0,99,93,79,30.43,30.32,8,1,12,0.00
2013-11-14,41.9,36.8,30.8,38.0,35.6,30.0,99,95,84,30.32,29.98,8,3,11,0.01
2013-11-15,38.5,33.7,30.5,34.0,31.7,30.0,98,92,78,29.98,29.46,11,2,16,0.00
2013-11-16,35.1,32.9,29.8,32.0,29.8,26.0,98,88,81,29.77,29.31,19,6,27,0.45
2013-11-17,40.8,34.9,29.7,35.0,31.4,29.0,97,87,74,30.06,29.77,8,1,8,0.22
2013-11-18,36.6,33.9,31.0,33.0,30.9,28.0,96,89,79,30.05,29.84,7,3,9,0.02
2013-11-19,42.4,38.5,33.5,40.0,36.6,33.0,98,93,84,29.84,29.73,12,2,19,0.41
2013-11-20,36.4,25.7,12.0,31.0,18.5,10.0,92,75,55,30.48,29.83,21,4,25,0.00
2013-11-21,31.6,19.7,9.0,22.0,16.6,7.0,97,88,63,30.83,30.49,6,1,8,0.00
2013-11-22,34.4,22.7,15.0,23.0,18.0,13.0,94,83,55,30.87,30.73,7,2,11,0.00
2013-11-23,37.7,25.2,16.5,26.0,20.5,15.0,97,83,58,30.74,30.43,7,2,10,0.00
2013-11-24,40.6,28.1,19.6,30.0,24.0,18.0,97,85,64,30.46,30.36,7,2,9,0.00
2013-11-25,42.6,32.9,25.7,30.0,27.3,24.0,93,81,60,30.52,30.44,11,3,12,0.00
2013-11-26,44.6,33.1,24.7,33.0,28.1,23.0,96,82,63,30.43,30.24,10,3,10,0.00
2013-11-27,39.4,31.3,25.9,33.0,28.3,25.0,96,89,72,30.26,30.15,8,3,11,0.00
2013-11-28,42.8,30.4,20.7,34.0,27.5,19.0,98,89,71,30.30,30.20,7,2,8,0.00
2013-11-29,37.7,31.6,24.9,33.0,29.0,23.0,95,90,75,30.38,30.29,8,2,12,0.05
2013-11-30,38.7,35.7,33.3,37.0,34.6,32.0,98,96,93,30.37,30.25,5,2,8,0.03
2013-12-1,44.4,40.6,35.7,44.0,39.6,34.0,98,96,93,30.24,29.75,14,4,24,1.35
2013-12-2,43.3,30.4,18.0,42.0,28.0,17.0,97,91,79,29.94,29.65,26,6,37,0.14
2013-12-3,24.5,18.2,11.1,24.0,11.5,3.0,96,75,57,30.31,29.94,15,5,21,0.00
2013-12-4,19.9,8.4,-6.0,8.0,2.3,-9.0,89,77,59,30.48,30.31,8,2,14,0.00
2013-12-5,13.9,3.5,-9.1,7.0,0.1,-12.0,94,85,69,30.48,30.42,5,1,6,0.00
2013-12-6,14.7,8.8,1.8,7.0,2.8,-4.0,90,77,64,30.43,30.25,16,5,20,0.00
2013-12-7,8.9,2.1,-14.3,0.0,-6.1,-18.0,86,70,52,30.55,30.21,14,5,21,0.00
2013-12-8,8.2,-1.8,-16.4,3.0,-5.3,-20.0,93,85,75,30.79,30.55,4,1,6,0.00
2013-12-9,17.2,11.2,4.8,13.0,8.5,2.0,91,88,84,30.77,30.55,8,4,13,0.00
2013-12-10,22.3,19.7,16.7,20.0,17.2,13.0,94,90,84,30.59,30.52,7,3,10,0.00
2013-12-11,29.7,24.4,21.5,22.0,20.2,19.0,91,84,72,30.58,30.45,8,3,10,0.00
2013-12-12,31.0,27.9,23.3,26.0,23.1,20.0,92,82,76,30.45,30.22,7,3,9,0.00
2013-12-13,32.5,30.4,27.4,32.0,29.5,26.0,97,96,93,30.53,30.25,5,1,7,0.03
2013-12-14,35.6,33.8,32.2,33.0,32.0,31.0,96,93,88,30.54,30.41,9,4,10,0.27
2013-12-15,40.0,34.1,26.6,33.0,30.7,25.0,95,87,76,30.42,30.34,9,3,11,0.00
2013-12-16,39.0,27.5,14.2,31.0,24.6,13.0,98,89,71,30.52,30.42,7,2,9,0.00
2013-12-17,39.6,32.2,27.5,29.0,26.7,24.0,91,81,61,30.48,30.08,10,3,12,0.00
2013-12-18,36.7,30.5,24.0,31.0,27.9,22.0,98,90,79,30.09,29.93,7,1,8,0.02
2013-12-19,28.1,19.5,5.7,27.0,17.4,4.0,97,91,85,30.28,29.99,6,1,9,0.00
2013-12-20,24.0,19.7,4.0,23.0,18.1,2.0,97,93,89,30.23,29.79,6,2,6,0.00
2013-12-21,30.8,27.9,24.0,30.0,27.2,23.0,97,97,95,30.18,29.88,5,1,7,0.00
2013-12-22,35.3,31.8,29.2,35.0,31.4,29.0,99,98,97,30.38,30.18,4,1,5,0.39
2013-12-23,38.9,34.3,31.4,37.0,32.8,27.0,98,94,81,30.41,30.12,43,4,43,0.62
2013-12-24,40.5,25.9,11.8,32.0,22.6,10.0,98,87,68,30.66,30.42,16,2,19,0.00
2013-12-25,31.2,26.5,20.9,26.0,23.5,20.0,96,88,76,30.66,30.52,6,3,9,0.00
2013-12-26,38.1,31.3,26.2,29.0,26.2,23.0,89,81,70,30.53,30.41,9,4,10,0.00
2013-12-27,36.2,32.3,26.6,30.0,26.9,24.0,92,81,70,30.41,30.17,8,3,11,0.00
2013-12-28,30.9,27.6,21.3,29.0,26.2,20.0,98,94,88,30.58,30.27,11,3,13,0.00
2013-12-29,30.2,27.1,23.3,28.0,25.7,22.0,97,94,88,30.57,30.37,9,3,10,0.00
2013-12-30,33.9,30.7,26.5,33.0,28.7,25.0,98,92,84,30.40,30.23,8,3,10,0.18
2013-12-31,38.1,31.9,18.1,35.0,30.5,17.0,97,94,85,30.42,30.18,5,1,6,0.03
2014-1-1,37.0,30.1,21.2,33.0,28.7,20.0,99,94,83,30.53,30.42,8,2,9,0.01
2014-1-2,38.6,33.2,27.8,33.0,30.3,26.0,97,89,79,30.44,29.91,10,4,12,0.00